This demonstration page uses our WeatherBlox Daily Observations layout. Learn more.

Left ArrowRight Arrow

Hourly Observations for June 5, 2017

Temp ( °F °C ) Dew Point ( °F °C ) Humidity (%) Winds ( mph kmh ) Pressure ( in mb ) Visibility ( mi km ) Precip ( " mm )
12:51 am 00:51 Clear 80 26.7 32 undefined 17 17 NNW 10 17 29.65 1004 10 16 N/A
1:51 am 01:51 Clear 81 27.2 32 undefined 17 17 NW 10 17 29.64 1004 10 16 N/A
2:51 am 02:51 Clear 79 26.1 32 undefined 18 18 NW 9 15 29.64 1004 10 16 N/A
3:51 am 03:51 Clear 78 25.6 32 undefined 19 19 NNW 9 15 29.65 1004 10 16 N/A
4:51 am 04:51 Clear 74 23.3 32 undefined 21 21 NNW 7 11 29.68 1005 10 16 N/A
5:51 am 05:51 Sunny 72 22.2 32 undefined 23 23 SE 3 6 29.71 1006 10 16 N/A
6:51 am 06:51 Sunny 77 25 33 0.6 20 20 N N/A 29.72 1006 10 16 N/A
7:51 am 07:51 Sunny 83 28.3 35 1.7 18 18 SSE 6 9 29.73 1007 10 16 N/A
8:51 am 08:51 Sunny 90 32.2 35 1.7 14 14 N N/A 29.72 1007 10 16 N/A
9:51 am 09:51 Sunny 95 35 33 0.6 11 11 WNW 8 13 29.71 1006 10 16 N/A
10:51 am 10:51 Sunny 99 37.2 33 0.6 10 10 WNW 8 13 29.70 1006 10 16 N/A
11:51 am 11:51 Sunny 100 37.8 32 undefined 9 9 VRB 6 9 29.67 1005 10 16 N/A
12:51 pm 12:51 Sunny 103 39.4 32 undefined 8 8 VRB 7 11 29.65 1004 10 16 N/A
1:51 pm 13:51 Partly Cloudy 104 40 31 -0.6 8 8 W 12 19 29.63 1003 10 16 N/A
2:51 pm 14:51 Mostly Cloudy 105 40.6 30 -1.1 7 7 VRB 5 7 29.61 1003 10 16 N/A
3:51 pm 15:51 Mostly Cloudy 104 40 31 -0.6 8 8 WSW 9 15 29.60 1002 10 16 N/A
4:51 pm 16:51 Mostly Cloudy 105 40.6 32 undefined 8 8 WNW 18 30 29.59 1002 10 16 N/A
5:51 pm 17:51 Mostly Cloudy 102 38.9 32 undefined 9 9 NW 14 22 29.61 1003 10 16 N/A
6:51 pm 18:51 Mostly Cloudy 99 37.2 33 0.6 10 10 WNW 20 31 29.62 1003 10 16 N/A
7:51 pm 19:51 Mostly Clear 94 34.4 34 1.1 12 12 WNW 15 24 29.64 1004 10 16 N/A
8:51 pm 20:51 Clear 90 32.2 34 1.1 14 14 WNW 12 19 29.66 1005 10 16 N/A
9:51 pm 21:51 Clear 89 31.7 35 1.7 15 15 WNW 15 24 29.68 1005 10 16 N/A
10:51 pm 22:51 Clear 86 30 35 1.7 16 16 NW 10 17 29.68 1005 10 16 N/A
11:51 pm 23:51 Clear 83 28.3 34 1.1 17 17 NW 10 17 29.69 1006 10 16 N/A

Powered by AerisWeather